Junction City, KY

11:27 AM EST on February 09, 2016 (GMT -0500)
Powell

Weather History for KDVK - December, 2011

Change the Weather History Date:

Saturday, December 31, 2011

  Actual Average (KLEX) Record (KLEX)
Temperature  
Mean Temperature 45 °F 33 °F  
Max Temperature 53 °F 41 °F 72 °F (1951)
Min Temperature 37 °F 25 °F -1 °F (1899)
Degree Days  
Heating Degree Days 20 32  
Month to date heating degree days 900  
Since 1 July heating degree days 1788  
Cooling Degree Days 0 0  
Month to date cooling degree days 0  
Year to date cooling degree days 1190  
Moisture  
Dew Point 34 °F    
Average Humidity 64    
Maximum Humidity 87    
Minimum Humidity 47    
Precipitation  
Precipitation 0.00 in 0.11 in 2.26 in (1918)
Month to date precipitation 3.93  
Year to date precipitation 45.17  
Snow  
Snow 0.00 in 0.10 in 7.80 in (1967)
Month to date snowfall 2.5  
Since 1 July snowfall 2.8  
Snow Depth -    
Sea Level Pressure  
Sea Level Pressure 30.01 in    
Wind  
Wind Speed 8 mph (WSW)    
Max Wind Speed 13 mph    
Max Gust Speed 22 mph    
Visibility 10 miles    
Events      
T = Trace of Precipitation, MM = Missing Value Source: NWS Daily Summary

Daily Weather History Graph

Daily Weather History Graph

Search for Another Location

Airport or City:

Trip Planner

Search our weather history database for the weather conditions in past years. The results will help you decide how hot, cold, wet, or windy it might be!

Date:

Astronomy

Dec. 31, 2011 Rise Set
Actual Time 7:53 AM EST 5:30 PM EST
Civil Twilight 7:24 AM EST 5:59 PM EST
Nautical Twilight 6:51 AM EST 6:32 PM EST
Astronomical Twilight 6:19 AM EST 7:04 PM EST
Moon 11:47 AM EST (12/31) No Moon Set
Length of Visible Light 10h 35m
Length of Day
9h 36m
Waxing Crescent, 45% of the Moon is Illuminated
Dec 31
Waxing Crescent
Jan 1
First Quarter
Jan 9
Full
Jan 16
Last Quarter
Jan 23
New

Hourly Weather History & Observations

Time (EST) Temp. Windchill Dew Point Humidity Pressure Visibility Wind Dir Wind Speed Gust Speed Precip Events Conditions
12:35 AM 50.0 °F - 37.4 °F 62% 29.84 in 10.0 mi West 10.4 mph 20.7 mph N/A   Overcast
12:55 AM 50.0 °F - 37.4 °F 62% 29.84 in 10.0 mi West 10.4 mph 17.3 mph N/A   Overcast
1:15 AM 50.0 °F - 37.4 °F 62% 29.84 in 10.0 mi West 10.4 mph 18.4 mph N/A   Overcast
1:35 AM 50.0 °F - 35.6 °F 58% 29.84 in 10.0 mi West 9.2 mph 19.6 mph N/A   Overcast
1:55 AM 48.2 °F - 33.8 °F 58% 29.85 in 10.0 mi West 11.5 mph 18.4 mph N/A   Mostly Cloudy
2:15 AM 48.2 °F - 33.8 °F 58% 29.86 in 10.0 mi WNW 8.1 mph - N/A   Scattered Clouds
2:35 AM 48.2 °F - 35.6 °F 62% 29.87 in 10.0 mi West 6.9 mph - N/A   Scattered Clouds
2:55 AM 48.2 °F - 33.8 °F 58% 29.88 in 10.0 mi West 12.7 mph 18.4 mph N/A   Mostly Cloudy
3:35 AM 46.4 °F 41.9 °F 32.0 °F 57% 29.89 in 10.0 mi West 9.2 mph - N/A   Overcast
3:55 AM 48.2 °F - 30.2 °F 50% 29.90 in 10.0 mi West 12.7 mph 18.4 mph N/A   Overcast
4:15 AM 46.4 °F 41.9 °F 30.2 °F 53% 29.91 in 10.0 mi West 9.2 mph 17.3 mph N/A   Overcast
4:35 AM 46.4 °F 42.9 °F 30.2 °F 53% 29.91 in 10.0 mi West 6.9 mph - N/A   Overcast
4:55 AM 46.4 °F 41.5 °F 32.0 °F 57% 29.93 in 10.0 mi West 10.4 mph 21.9 mph N/A   Mostly Cloudy
5:15 AM 44.6 °F 39.7 °F 32.0 °F 61% 29.94 in 10.0 mi West 9.2 mph - N/A   Unknown
5:35 AM 44.6 °F 40.2 °F 33.8 °F 66% 29.95 in 10.0 mi West 8.1 mph - N/A   Unknown
5:55 AM 44.6 °F 40.7 °F 33.8 °F 66% 29.95 in 10.0 mi West 6.9 mph - N/A   Unknown
6:15 AM 42.8 °F 38.0 °F 33.8 °F 70% 29.96 in 10.0 mi West 8.1 mph - N/A   Mostly Cloudy
6:35 AM 44.6 °F 40.7 °F 33.8 °F 66% 29.98 in 10.0 mi West 6.9 mph - N/A   Overcast
7:15 AM 44.6 °F 40.7 °F 33.8 °F 66% 30.00 in 10.0 mi West 6.9 mph - N/A   Overcast
7:35 AM 44.6 °F 40.7 °F 33.8 °F 66% 30.01 in 10.0 mi West 6.9 mph - N/A   Overcast
7:55 AM 44.6 °F 40.7 °F 33.8 °F 66% 30.01 in 10.0 mi West 6.9 mph - N/A   Overcast
8:15 AM 44.6 °F 40.7 °F 33.8 °F 66% 30.02 in 10.0 mi West 6.9 mph - N/A   Overcast
8:35 AM 44.6 °F 39.7 °F 33.8 °F 66% 30.03 in 10.0 mi WNW 9.2 mph - N/A   Overcast
8:55 AM 44.6 °F 40.7 °F 33.8 °F 66% 30.04 in 10.0 mi WNW 6.9 mph - N/A   Overcast
9:15 AM 44.6 °F 40.2 °F 33.8 °F 66% 30.06 in 10.0 mi WNW 8.1 mph - N/A   Overcast
9:35 AM 46.4 °F 42.4 °F 33.8 °F 62% 30.07 in 10.0 mi WNW 8.1 mph - N/A   Unknown
9:55 AM 46.4 °F 42.4 °F 33.8 °F 62% 30.08 in 10.0 mi WNW 8.1 mph - N/A   Overcast
10:15 AM 46.4 °F 42.4 °F 35.6 °F 66% 30.09 in 10.0 mi West 8.1 mph - N/A   Overcast
10:35 AM 46.4 °F 42.4 °F 35.6 °F 66% 30.10 in 10.0 mi West 8.1 mph - N/A   Overcast
10:55 AM 46.4 °F 42.9 °F 35.6 °F 66% 30.10 in 10.0 mi West 6.9 mph - N/A   Overcast
11:35 AM 46.4 °F 43.5 °F 35.6 °F 66% 30.10 in 10.0 mi West 5.8 mph - N/A   Overcast
11:55 AM 46.4 °F 43.5 °F 33.8 °F 62% 30.09 in 10.0 mi WNW 5.8 mph - N/A   Mostly Cloudy
12:15 PM 46.4 °F - 35.6 °F 66% 30.09 in 10.0 mi Calm Calm - N/A   Unknown
12:35 PM 48.2 °F - 35.6 °F 62% 30.08 in 10.0 mi West 5.8 mph - N/A   Unknown
12:55 PM 48.2 °F - 35.6 °F 62% 30.08 in 10.0 mi SSW 5.8 mph - N/A   Unknown
1:15 PM 50.0 °F - 35.6 °F 58% 30.06 in 10.0 mi SSW 8.1 mph - N/A   Unknown
1:35 PM 50.0 °F - 33.8 °F 54% 30.06 in 10.0 mi SW 5.8 mph - N/A   Unknown
1:55 PM 51.8 °F - 35.6 °F 54% 30.05 in 10.0 mi Calm Calm - N/A   Unknown
2:15 PM 50.0 °F - 35.6 °F 58% 30.05 in 10.0 mi SSW 4.6 mph - N/A   Clear
2:35 PM 51.8 °F - 35.6 °F 54% 30.05 in 10.0 mi SW 4.6 mph - N/A   Clear
2:55 PM 51.8 °F - 35.6 °F 54% 30.05 in 10.0 mi South 4.6 mph - N/A   Clear
3:15 PM 53.6 °F - 33.8 °F 47% 30.05 in 10.0 mi SSW 9.2 mph - N/A   Clear
3:35 PM 51.8 °F - 35.6 °F 54% 30.05 in 10.0 mi South 6.9 mph - N/A   Clear
4:15 PM 53.6 °F - 33.8 °F 47% 30.05 in 10.0 mi SW 5.8 mph - N/A   Clear
4:35 PM 53.6 °F - 35.6 °F 51% 30.06 in 10.0 mi SW 5.8 mph - N/A   Clear
4:55 PM 51.8 °F - 35.6 °F 54% 30.07 in 10.0 mi SW 4.6 mph - N/A   Clear
5:35 PM 48.2 °F - 35.6 °F 62% 30.07 in 10.0 mi SSW 4.6 mph - N/A   Clear
5:55 PM 46.4 °F 45.2 °F 35.6 °F 66% 30.08 in 10.0 mi SSW 3.5 mph - N/A   Clear
6:15 PM 46.4 °F 45.2 °F 35.6 °F 66% 30.07 in 10.0 mi South 3.5 mph - N/A   Clear
6:35 PM 44.6 °F 42.2 °F 35.6 °F 71% 30.06 in 10.0 mi South 4.6 mph - N/A   Clear
6:55 PM 42.8 °F 40.1 °F 35.6 °F 76% 30.06 in 10.0 mi South 4.6 mph - N/A   Clear
7:15 PM 42.8 °F 39.3 °F 35.6 °F 76% 30.06 in 10.0 mi South 5.8 mph - N/A   Clear
7:35 PM 41.0 °F - 33.8 °F 76% 30.06 in 10.0 mi Calm Calm - N/A   Clear
7:55 PM 39.2 °F - 33.8 °F 81% 30.06 in 10.0 mi Calm Calm - N/A   Clear
8:15 PM 39.2 °F 35.9 °F 33.8 °F 81% 30.05 in 10.0 mi SSE 4.6 mph - N/A   Clear
8:35 PM 39.2 °F - 33.8 °F 81% 30.05 in 10.0 mi Calm Calm - N/A   Clear
8:55 PM 37.4 °F - 33.8 °F 87% 30.05 in 10.0 mi Calm Calm - N/A   Clear
9:35 PM 37.4 °F 33.8 °F 33.8 °F 87% 30.03 in 10.0 mi SW 4.6 mph - N/A   Clear
9:55 PM 39.2 °F 37.0 °F 33.8 °F 81% 30.04 in 10.0 mi SW 3.5 mph - N/A   Clear
10:35 PM 41.0 °F 38.0 °F 33.8 °F 76% 30.02 in 10.0 mi SSW 4.6 mph - N/A   Clear
11:15 PM 42.8 °F 37.5 °F 33.8 °F 70% 30.02 in 10.0 mi SSW 9.2 mph - N/A   Clear
11:35 PM 42.8 °F 37.0 °F 33.8 °F 70% 30.01 in 10.0 mi SSW 10.4 mph - N/A   Clear
11:55 PM 42.8 °F 37.5 °F 33.8 °F 70% 30.02 in 10.0 mi SSW 9.2 mph - N/A   Clear